QPF
0.10 0.18 0.19 0.11 0.04 0.02 0.01 0.01 0.01 0.00 0.00 0.00 0.00 0.00 0.00 0.00 0.00 0.00 0.00 0.00 0.00 0.00 0.00 0.01 0.00 0.00 0.00 0.00 0.00 0.00 0.00 0.00 0.00 0.00 0.00 0.00 0.00 0.00 0.00 0.00 0.00 0.00 0.00
0.04 0.03 0.05 0.03 0.03 0.04 0.04 0.04 0.01 0.00 0.00 0.00 0.00 0.00 0.01 0.01 0.00 0.00 0.00 0.00 0.00 0.00 0.01 0.01 0.00 0.00 0.00 0.00 0.00 0.00 0.00 0.00 0.00 0.00 0.00 0.00 0.00 0.00 0.00 0.00 0.00 0.00 0.00
0.07 0.01 0.00 0.03 0.07 0.07 0.05 0.02 0.00 0.00 0.00 0.00 0.00 0.00 0.00 0.01 0.01 0.01 0.00 0.00 0.00 0.01 0.02 0.00 0.00 0.00 0.00 0.00 0.00 0.00 0.00 0.00 0.00 0.00 0.00 0.00 0.00 0.00 0.00 0.00 0.00 0.00 0.00
0.02 0.00 0.00 0.01 0.03 0.04 0.01 0.00 0.00 0.00 0.00 0.00 0.00 0.00 0.00 0.00 0.01 0.03 0.03 0.00 0.00 0.01 0.00 0.00 0.00 0.00 0.00 0.00 0.00 0.00 0.00 0.00 0.00 0.00 0.00 0.00 0.00 0.00 0.00 0.00 0.00 0.00 0.00
0.02 0.00 0.00 0.00 0.00 0.00 0.00 0.00 0.00 0.00 0.00 0.00 0.00 0.00 0.00 0.00 0.00 0.01 0.01 0.00 0.01 0.02 0.00 0.00 0.00 0.00 0.00 0.00 0.00 0.00 0.00 0.00 0.00 0.00 0.00 0.00 0.00 0.00 0.00 0.00 0.00 0.00 0.00
0.01 0.01 0.00 0.00 0.00 0.00 0.00 0.00 0.00 0.00 0.00 0.00 0.00 0.00 0.00 0.00 0.00 0.02 0.01 0.00 0.00 0.00 0.00 0.00 0.00 0.00 0.00 0.00 0.00 0.00 0.00 0.00 0.00 0.00 0.00 0.00 0.00 0.00 0.00 0.00 0.00 0.00 0.00
0.01 0.00 0.00 0.00 0.00 0.00 0.00 0.00 0.00 0.00 0.00 0.00 0.00 0.00 0.00 0.00 0.00 0.00 0.01 0.00 0.00 0.00 0.00 0.00 0.00 0.00 0.00 0.00 0.00 0.00 0.00 0.00 0.00 0.00 0.00 0.00 0.00 0.00 0.00 0.00 0.00 0.00 0.00
0.01 0.00 0.00 0.00 0.00 0.00 0.00 0.00 0.00 0.00 0.00 0.00 0.00 0.00 0.00 0.00 0.00 0.00 0.00 0.00 0.00 0.00 0.00 0.00 0.00 0.00 0.00 0.00 0.00 0.00 0.00 0.00 0.00 0.00 0.00 0.00 0.00 0.00 0.00 0.00 0.00 0.00 0.00
0.02 0.00 0.00 0.00 0.00 0.00 0.00 0.00 0.00 0.00 0.00 0.00 0.00 0.00 0.00 0.00 0.00 0.00 0.00 0.00 0.00 0.00 0.00 0.00 0.00 0.00 0.00 0.00 0.00 0.00 0.00 0.00 0.00 0.00 0.00 0.00 0.00 0.00 0.00 0.00 0.00 0.00 0.00
0.01 0.00 0.00 0.00 0.00 0.00 0.00 0.00 0.00 0.00 0.00 0.00 0.00 0.00 0.00 0.00 0.00 0.00 0.00 0.00 0.00 0.00 0.00 0.00 0.00 0.00 0.00 0.00 0.00 0.00 0.00 0.00 0.00 0.00 0.00 0.00 0.00 0.00 0.00 0.00 0.00 0.00 0.00
0.02 0.00 0.00 0.00 0.00 0.00 0.00 0.00 0.00 0.00 0.00 0.00 0.00 0.00 0.00 0.00 0.00 0.00 0.00 0.00 0.00 0.00 0.00 0.00 0.00 0.00 0.00 0.00 0.00 0.00 0.00 0.00 0.00 0.00 0.00 0.00 0.00 0.00 0.00 0.00 0.00 0.00 0.00
0.00 0.00 0.00 0.00 0.00 0.00 0.00 0.00 0.00 0.00 0.00 0.00 0.00 0.00 0.00 0.00 0.00 0.00 0.00 0.00 0.00 0.00 0.00 0.00 0.00 0.00 0.00 0.00 0.00 0.00 0.00 0.00 0.00 0.00 0.00 0.00 0.00 0.00 0.00 0.00 0.00 0.00 0.00
0.00 0.00 0.00 0.00 0.00 0.00 0.00 0.00 0.00 0.00 0.00 0.00 0.00 0.00 0.00 0.00 0.00 0.00 0.00 0.00 0.00 0.00 0.00 0.00 0.00 0.00 0.00 0.00 0.00 0.00 0.00 0.00 0.00 0.00 0.00 0.00 0.00 0.00 0.00 0.00 0.00 0.00 0.00
0.00 0.00 0.00 0.00 0.00 0.00 0.00 0.00 0.00 0.00 0.00 0.00 0.00 0.00 0.00 0.00 0.00 0.00 0.00 0.00 0.00 0.00 0.00 0.00 0.00 0.00 0.00 0.00 0.00 0.00 0.00 0.00 0.00 0.00 0.00 0.00 0.00 0.00 0.00 0.00 0.00 0.00 0.00
0.00 0.00 0.00 0.00 0.00 0.00 0.00 0.00 0.00 0.00 0.00 0.00 0.00 0.00 0.00 0.00 0.00 0.00 0.00 0.00 0.00 0.00 0.00 0.00 0.00 0.00 0.00 0.00 0.00 0.00 0.00 0.00 0.00 0.00 0.00 0.00 0.00 0.00 0.00 0.00 0.00 0.00 0.00
0.00 0.00 0.00 0.00 0.00 0.00 0.00 0.00 0.00 0.00 0.00 0.00 0.00 0.00 0.00 0.00 0.00 0.00 0.00 0.00 0.00 0.00 0.00 0.00 0.00 0.00 0.00 0.00 0.00 0.00 0.00 0.00 0.00 0.00 0.00 0.00 0.00 0.00 0.00 0.00 0.00 0.00 0.00
0.00 0.00 0.00 0.00 0.00 0.00 0.00 0.00 0.00 0.00 0.00 0.00 0.00 0.00 0.00 0.00 0.00 0.00 0.00 0.00 0.00 0.00 0.00 0.00 0.00 0.00 0.00 0.00 0.00 0.00 0.00 0.00 0.00 0.00 0.00 0.00 0.00 0.00 0.00 0.00 0.00 0.00 0.00
0.00 0.00 0.00 0.00 0.00 0.00 0.00 0.00 0.00 0.00 0.00 0.00 0.00 0.00 0.00 0.00 0.00 0.00 0.00 0.00 0.00 0.00 0.00 0.00 0.00 0.00 0.00 0.00 0.00 0.00 0.00 0.00 0.00 0.00 0.00 0.00 0.00 0.00 0.00 0.00 0.00 0.00 0.00
0.00 0.00 0.00 0.00 0.00 0.00 0.00 0.00 0.00 0.00 0.00 0.00 0.00 0.00 0.00 0.00 0.00 0.00 0.00 0.00 0.00 0.00 0.00 0.00 0.00 0.00 0.00 0.00 0.00 0.00 0.00 0.00 0.00 0.00 0.00 0.00 0.00 0.00 0.00 0.00 0.00 0.00 0.00
0.00 0.00 0.00 0.00 0.00 0.00 0.00 0.00 0.00 0.00 0.00 0.00 0.00 0.00 0.00 0.00 0.00 0.00 0.00 0.00 0.00 0.00 0.00 0.00 0.00 0.00 0.00 0.00 0.00 0.00 0.00 0.00 0.00 0.00 0.00 0.00 0.00 0.00 0.00 0.00 0.00 0.00 0.00
0.00 0.00 0.00 0.00 0.00 0.00 0.00 0.00 0.00 0.00 0.00 0.00 0.00 0.00 0.00 0.00 0.00 0.00 0.00 0.00 0.00 0.00 0.00 0.00 0.00 0.00 0.00 0.00 0.00 0.00 0.00 0.00 0.00 0.00 0.00 0.00 0.00 0.00 0.00 0.00 0.00 0.00 0.00
0.00 0.00 0.00 0.00 0.00 0.00 0.00 0.00 0.00 0.00 0.00 0.00 0.00 0.00 0.00 0.00 0.00 0.00 0.00 0.00 0.00 0.00 0.00 0.00 0.00 0.00 0.00 0.00 0.00 0.00 0.00 0.00 0.00 0.00 0.00 0.00 0.00 0.00 0.00 0.00 0.00 0.00 0.00
0.00 0.00 0.00 0.00 0.00 0.00 0.00 0.00 0.00 0.00 0.00 0.00 0.00 0.00 0.00 0.00 0.00 0.00 0.00 0.00 0.00 0.00 0.00 0.00 0.00 0.00 0.00 0.00 0.00 0.00 0.00 0.00 0.00 0.00 0.00 0.00 0.00 0.00 0.00 0.00 0.00 0.00 0.00
0.00 0.00 0.00 0.00 0.00 0.00 0.00 0.00 0.00 0.00 0.00 0.00 0.00 0.00 0.00 0.00 0.00 0.00 0.00 0.00 0.00 0.00 0.00 0.00 0.00 0.00 0.00 0.00 0.00 0.00 0.00 0.00 0.00 0.00 0.00 0.00 0.00 0.00 0.00 0.00 0.00 0.00 0.00
0.00 0.00 0.00 0.00 0.00 0.00 0.00 0.00 0.00 0.00 0.00 0.00 0.00 0.00 0.00 0.00 0.00 0.00 0.00 0.00 0.00 0.00 0.00 0.00 0.00 0.00 0.00 0.00 0.00 0.00 0.00 0.00 0.00 0.00 0.00 0.00 0.00 0.00 0.00 0.00 0.00 0.00 0.00
0.00 0.00 0.00 0.00 0.00 0.00 0.00 0.00 0.00 0.00 0.00 0.00 0.00 0.00 0.00 0.00 0.00 0.00 0.00 0.00 0.00 0.00 0.00 0.00 0.00 0.00 0.00 0.00 0.00 0.00 0.00 0.00 0.00 0.00 0.00 0.00 0.00 0.00 0.00 0.00 0.00 0.00 0.00
MSLP
1008.52 1008.79 1008.98 1009.26 1009.75 1010.69 1010.26 1011.69 1012.40 1012.51 1012.84 1013.06 1013.41 1013.87 1014.20 1014.81 1015.37 1015.74 1016.05 1016.48 1016.62 1016.92 1017.20 1017.40 1017.67 1017.94 1018.21 1018.36 1018.55 1018.80 1018.94 1019.20 1020.08 1021.15 1021.51 1021.72 1021.76 1021.59 1021.51 1021.50 1021.60 1021.56 1021.41
1009.22 1009.21 1009.38 1009.22 1009.76 1010.77 1010.80 1011.89 1012.15 1012.46 1013.05 1013.24 1013.39 1013.80 1014.14 1014.62 1015.28 1015.80 1016.24 1016.55 1016.83 1017.04 1017.26 1017.54 1017.82 1018.13 1018.34 1018.49 1018.64 1018.87 1019.11 1019.47 1019.91 1020.91 1021.75 1022.15 1022.28 1022.32 1022.33 1022.43 1022.44 1022.39 1022.27
1010.01 1009.79 1009.60 1009.87 1009.60 1011.23 1011.34 1012.08 1012.37 1012.75 1013.22 1013.38 1013.54 1013.88 1014.10 1014.64 1015.32 1015.74 1016.20 1016.56 1016.80 1016.95 1017.30 1017.62 1017.84 1018.13 1018.35 1018.56 1018.72 1018.98 1019.39 1019.78 1020.11 1020.74 1021.80 1022.52 1022.80 1022.88 1023.13 1023.41 1023.55 1023.44 1023.32
1010.40 1010.30 1010.29 1010.22 1010.08 1011.48 1011.89 1012.24 1012.60 1012.99 1013.31 1013.66 1013.96 1014.14 1014.30 1014.87 1015.28 1015.73 1016.26 1016.80 1017.11 1017.38 1017.63 1017.90 1018.11 1018.30 1018.55 1018.78 1019.07 1019.37 1019.78 1020.22 1020.69 1021.38 1022.08 1022.79 1023.19 1023.52 1023.60 1023.83 1024.09 1024.19 1024.06
1010.35 1010.47 1010.70 1010.55 1010.79 1011.64 1012.08 1012.63 1012.98 1013.18 1013.44 1013.82 1014.02 1014.27 1014.55 1015.15 1015.57 1016.02 1016.63 1017.12 1017.46 1017.99 1018.23 1018.40 1018.61 1018.77 1018.97 1019.20 1019.41 1019.91 1020.29 1020.85 1021.45 1022.10 1022.65 1023.28 1023.78 1023.93 1023.96 1024.22 1024.26 1024.38 1024.63
1010.17 1010.58 1010.68 1010.91 1011.29 1011.89 1012.56 1012.86 1013.10 1013.38 1013.74 1013.92 1014.16 1014.29 1014.80 1015.43 1015.84 1016.35 1016.82 1017.46 1018.11 1018.59 1019.00 1019.22 1019.39 1019.60 1019.65 1019.84 1020.16 1020.56 1020.94 1021.47 1022.10 1022.78 1023.33 1023.73 1024.37 1024.48 1024.55 1024.52 1024.44 1024.33 1024.37
1009.84 1010.57 1010.89 1011.31 1011.88 1012.32 1012.67 1013.05 1013.16 1013.66 1013.94 1014.16 1014.23 1014.58 1015.10 1015.68 1016.18 1016.67 1017.22 1018.01 1018.77 1019.39 1019.65 1020.11 1020.59 1021.12 1021.20 1021.27 1021.48 1021.77 1022.25 1022.70 1023.02 1023.40 1023.93 1024.56 1024.92 1025.16 1024.96 1024.88 1024.95 1025.01 1025.37
1009.38 1010.37 1011.01 1011.58 1012.11 1012.50 1012.80 1013.11 1013.56 1013.88 1014.16 1014.36 1014.54 1015.08 1015.58 1016.32 1016.65 1017.25 1017.80 1018.58 1019.37 1019.93 1020.43 1020.81 1021.29 1021.80 1022.12 1022.09 1022.28 1022.83 1023.49 1024.01 1024.39 1024.58 1024.95 1025.47 1025.77 1025.83 1025.68 1025.64 1025.69 1025.75 1025.89
1009.44 1010.23 1010.97 1011.49 1012.04 1012.45 1013.00 1013.42 1013.82 1014.24 1014.60 1014.82 1015.35 1015.95 1016.53 1017.28 1017.36 1017.86 1018.35 1019.28 1019.97 1020.62 1021.26 1021.60 1021.88 1022.37 1022.84 1022.94 1023.02 1023.64 1024.44 1025.04 1025.51 1025.67 1025.88 1026.07 1026.22 1026.36 1026.28 1025.84 1025.86 1025.61 1025.76
1009.20 1010.22 1010.74 1011.36 1011.86 1012.60 1013.17 1013.75 1014.32 1014.76 1015.24 1015.58 1016.43 1016.95 1017.33 1017.85 1018.26 1018.66 1019.12 1019.69 1020.33 1021.10 1021.97 1022.43 1022.77 1023.05 1023.52 1023.78 1023.93 1024.58 1025.20 1026.08 1026.49 1026.82 1026.97 1027.07 1027.10 1027.12 1026.99 1026.82 1026.62 1026.36 1026.38
1009.31 1010.10 1010.68 1011.32 1012.08 1012.88 1013.53 1014.18 1014.70 1015.22 1015.81 1016.57 1017.29 1018.00 1018.22 1018.59 1019.05 1019.40 1019.97 1020.31 1020.63 1021.54 1022.35 1022.88 1023.52 1023.95 1024.34 1024.75 1025.12 1025.54 1026.03 1026.49 1026.97 1027.15 1027.38 1027.55 1027.67 1027.79 1027.81 1027.83 1027.76 1027.53 1027.41
1008.96 1009.84 1010.80 1011.57 1012.49 1013.17 1013.86 1014.62 1015.06 1015.55 1016.28 1017.34 1017.76 1018.56 1019.09 1019.52 1019.86 1020.20 1020.72 1021.05 1021.45 1021.83 1022.76 1023.39 1024.09 1024.62 1025.07 1025.48 1025.83 1026.33 1026.75 1027.09 1027.34 1027.59 1027.87 1028.15 1028.33 1028.54 1028.64 1028.56 1028.52 1028.38 1028.34
1009.04 1010.20 1011.05 1011.87 1012.70 1013.39 1014.03 1014.80 1015.41 1016.08 1016.90 1017.58 1018.33 1018.92 1019.60 1020.23 1020.62 1020.98 1021.39 1021.82 1022.31 1022.78 1023.27 1023.88 1024.63 1025.22 1025.71 1026.22 1026.73 1027.16 1027.44 1027.61 1027.93 1028.10 1028.46 1028.90 1029.16 1029.17 1028.95 1028.83 1028.82 1028.78 1028.63
1009.05 1010.23 1011.21 1012.12 1012.95 1013.73 1014.25 1014.81 1015.52 1016.28 1017.16 1017.68 1018.66 1019.37 1020.11 1020.67 1021.17 1021.68 1022.20 1022.58 1022.96 1023.63 1024.45 1025.25 1025.93 1026.43 1026.88 1027.40 1027.75 1028.02 1028.22 1028.43 1028.67 1028.86 1029.12 1029.38 1029.44 1029.30 1029.25 1029.16 1028.99 1028.90 1028.63
1009.27 1010.48 1011.50 1012.44 1013.23 1013.95 1014.67 1015.06 1015.76 1016.52 1016.73 1017.51 1018.67 1019.38 1020.03 1021.00 1021.77 1022.17 1022.63 1023.35 1024.07 1024.95 1025.67 1026.34 1026.76 1027.23 1027.67 1028.10 1028.51 1028.78 1029.03 1029.23 1029.30 1029.51 1029.58 1029.65 1029.65 1029.57 1029.57 1029.54 1029.39 1029.13 1028.84
1009.46 1010.71 1011.67 1012.66 1013.53 1014.19 1015.03 1015.93 1016.62 1016.92 1017.65 1018.48 1018.98 1019.45 1020.66 1021.29 1021.99 1022.72 1023.38 1023.98 1024.72 1025.35 1025.83 1026.38 1027.10 1027.61 1028.00 1028.45 1028.84 1029.26 1029.58 1029.75 1029.91 1030.00 1030.03 1030.02 1030.00 1029.93 1029.94 1029.84 1029.64 1029.46 1029.21
1009.66 1010.89 1011.91 1012.78 1013.64 1014.36 1015.36 1016.17 1017.22 1018.60 1018.99 1019.46 1019.76 1020.34 1020.99 1021.59 1022.49 1023.21 1023.92 1024.56 1025.21 1025.67 1026.07 1026.90 1027.41 1027.97 1028.47 1028.86 1029.22 1029.59 1029.89 1030.26 1030.41 1030.40 1030.40 1030.40 1030.44 1030.46 1030.32 1030.16 1029.99 1029.78 1029.56
1009.97 1010.99 1011.94 1012.85 1013.66 1014.68 1015.57 1016.56 1017.48 1018.02 1019.15 1020.31 1020.83 1021.13 1021.74 1022.31 1022.98 1023.68 1024.36 1025.13 1025.88 1026.37 1026.63 1027.17 1027.81 1028.38 1028.80 1029.17 1029.60 1030.02 1030.33 1030.60 1030.74 1030.79 1030.81 1030.88 1030.89 1030.84 1030.72 1030.57 1030.33 1030.18 1030.06
1010.29 1011.40 1012.21 1013.10 1014.02 1014.89 1015.96 1016.87 1017.65 1018.47 1019.48 1020.47 1021.22 1022.07 1022.53 1022.99 1023.57 1024.34 1025.00 1025.19 1025.82 1026.52 1027.12 1027.72 1028.23 1028.63 1029.13 1029.58 1029.99 1030.32 1030.59 1030.83 1031.02 1031.10 1031.17 1031.22 1031.23 1031.17 1031.13 1031.06 1030.93 1030.75 1030.46
1010.80 1011.55 1012.41 1013.40 1014.42 1015.29 1016.13 1017.01 1018.10 1018.90 1019.93 1020.76 1021.45 1022.18 1022.84 1023.39 1024.06 1024.74 1025.22 1025.69 1026.22 1026.84 1027.41 1027.97 1028.50 1028.93 1029.37 1029.80 1030.19 1030.54 1030.79 1031.07 1031.22 1031.28 1031.34 1031.43 1031.48 1031.51 1031.47 1031.38 1031.21 1030.92 1030.62
1011.25 1012.06 1012.79 1013.67 1014.60 1015.57 1016.39 1017.31 1018.09 1018.94 1020.10 1021.00 1021.75 1022.46 1022.84 1023.24 1024.04 1024.72 1025.35 1025.94 1026.44 1026.99 1027.57 1028.16 1028.68 1029.11 1029.55 1029.94 1030.31 1030.63 1030.92 1031.16 1031.35 1031.44 1031.51 1031.59 1031.64 1031.63 1031.62 1031.57 1031.46 1031.22 1030.94
1011.66 1012.45 1013.23 1013.97 1014.94 1015.90 1016.78 1017.51 1018.24 1019.17 1020.27 1021.13 1022.07 1022.83 1023.37 1023.76 1024.25 1024.87 1025.55 1026.12 1026.61 1027.10 1027.68 1028.20 1028.74 1029.13 1029.57 1029.94 1030.26 1030.58 1030.90 1031.17 1031.44 1031.58 1031.64 1031.71 1031.75 1031.77 1031.79 1031.75 1031.65 1031.49 1031.31
1012.15 1012.87 1013.63 1014.48 1015.30 1016.26 1017.16 1017.84 1018.60 1019.38 1020.31 1021.16 1021.94 1022.77 1023.56 1023.98 1024.44 1025.03 1025.68 1026.21 1026.78 1027.36 1027.92 1028.36 1028.80 1029.28 1029.68 1029.99 1030.27 1030.54 1030.85 1031.09 1031.38 1031.61 1031.71 1031.82 1031.87 1031.93 1031.92 1031.88 1031.86 1031.74 1031.64
1012.57 1013.17 1013.95 1014.84 1015.67 1016.53 1017.29 1018.07 1018.89 1019.57 1020.35 1021.20 1021.89 1022.75 1023.40 1024.01 1024.56 1025.11 1025.71 1026.29 1026.90 1027.49 1028.00 1028.48 1028.84 1029.21 1029.65 1030.03 1030.32 1030.61 1030.86 1031.25 1031.58 1031.77 1031.84 1031.92 1031.98 1032.05 1032.03 1032.06 1032.07 1032.04 1031.91
1013.06 1013.58 1014.24 1014.99 1015.82 1016.59 1017.48 1018.19 1018.98 1019.75 1020.43 1021.16 1021.89 1022.64 1023.32 1024.04 1024.68 1025.19 1025.72 1026.35 1026.95 1027.49 1028.05 1028.52 1028.89 1029.25 1029.56 1029.88 1030.20 1030.56 1030.98 1031.40 1031.62 1031.89 1032.03 1032.16 1032.21 1032.25 1032.21 1032.22 1032.22 1032.16 1032.08
1013.48 1013.92 1014.47 1015.15 1015.91 1016.59 1017.35 1018.12 1018.92 1019.64 1020.34 1021.08 1021.74 1022.38 1023.02 1023.80 1024.52 1025.07 1025.63 1026.27 1026.92 1027.46 1028.03 1028.50 1028.84 1029.17 1029.52 1029.92 1030.27 1030.69 1031.07 1031.46 1031.76 1031.98 1032.09 1032.23 1032.29 1032.38 1032.35 1032.35 1032.36 1032.29 1032.29
Thickness
5608 5609 5610 5608 5607 5606 5616 5608 5604 5607 5609 5612 5612 5609 5606 5600 5595 5592 5590 5586 5583 5580 5577 5576 5574 5572 5570 5569 5567 5564 5563 5562 5554 5544 5539 5536 5535 5534 5532 5530 5529 5527 5525
5597 5600 5600 5605 5601 5597 5603 5598 5600 5603 5602 5605 5606 5605 5602 5597 5592 5587 5584 5582 5578 5576 5574 5572 5569 5568 5567 5566 5564 5561 5559 5556 5552 5544 5533 5527 5525 5523 5521 5519 5516 5514 5512
5582 5588 5593 5593 5594 5585 5590 5588 5591 5595 5595 5598 5600 5600 5597 5593 5587 5584 5582 5578 5577 5575 5573 5570 5568 5567 5565 5563 5561 5557 5553 5549 5546 5540 5528 5520 5516 5513 5510 5505 5501 5499 5496
5572 5577 5580 5584 5585 5576 5578 5581 5585 5587 5590 5591 5592 5593 5591 5587 5584 5582 5578 5573 5572 5570 5568 5566 5565 5563 5561 5558 5554 5550 5545 5541 5536 5529 5521 5514 5508 5503 5499 5495 5491 5486 5483
5566 5570 5569 5575 5574 5571 5573 5575 5577 5582 5585 5586 5588 5587 5585 5581 5580 5577 5573 5569 5567 5564 5562 5561 5559 5558 5555 5551 5547 5542 5538 5533 5526 5519 5514 5507 5499 5496 5493 5486 5482 5477 5470
5562 5562 5564 5567 5566 5564 5565 5569 5573 5576 5579 5582 5584 5583 5580 5576 5575 5573 5569 5565 5560 5558 5555 5552 5551 5549 5548 5545 5540 5535 5531 5525 5518 5510 5505 5499 5489 5484 5480 5476 5473 5471 5468
5558 5557 5559 5558 5557 5558 5561 5565 5569 5570 5573 5576 5578 5577 5575 5572 5571 5569 5565 5558 5554 5550 5548 5544 5539 5535 5534 5532 5528 5525 5519 5513 5508 5503 5496 5487 5480 5473 5471 5467 5461 5456 5447
5556 5553 5552 5552 5552 5553 5557 5561 5563 5566 5569 5572 5573 5571 5568 5565 5565 5561 5557 5553 5549 5545 5540 5537 5533 5530 5527 5526 5522 5516 5508 5501 5496 5491 5484 5476 5469 5463 5459 5453 5447 5440 5432
5549 5550 5549 5549 5549 5551 5553 5555 5558 5560 5563 5564 5564 5560 5559 5555 5557 5555 5554 5547 5543 5539 5533 5531 5529 5525 5520 5518 5516 5509 5501 5493 5485 5480 5474 5467 5460 5453 5447 5443 5437 5433 5424
5545 5546 5547 5546 5547 5547 5549 5551 5551 5553 5554 5556 5552 5550 5550 5550 5549 5548 5546 5543 5540 5535 5528 5525 5522 5519 5514 5512 5510 5503 5495 5484 5477 5469 5462 5455 5448 5441 5434 5427 5421 5416 5408
5542 5543 5545 5543 5541 5542 5544 5544 5546 5547 5547 5546 5542 5539 5542 5543 5542 5542 5539 5538 5538 5531 5526 5522 5515 5512 5509 5505 5500 5494 5488 5479 5469 5462 5454 5445 5437 5428 5420 5411 5403 5396 5388
5544 5543 5539 5538 5536 5538 5539 5539 5542 5543 5541 5537 5537 5534 5534 5535 5535 5535 5532 5532 5532 5530 5523 5518 5512 5508 5504 5499 5493 5486 5479 5471 5463 5455 5445 5435 5426 5416 5407 5399 5389 5379 5367
5537 5535 5533 5532 5533 5535 5536 5536 5538 5538 5535 5535 5531 5531 5530 5529 5529 5529 5527 5527 5525 5522 5519 5515 5509 5504 5499 5493 5486 5479 5471 5463 5455 5446 5435 5424 5413 5405 5397 5388 5377 5364 5351
5534 5531 5529 5529 5530 5530 5533 5536 5536 5535 5533 5533 5528 5528 5525 5525 5525 5524 5522 5522 5520 5516 5512 5507 5501 5496 5492 5485 5477 5470 5462 5454 5446 5436 5426 5414 5405 5397 5387 5376 5364 5350 5335
5529 5525 5524 5525 5526 5529 5530 5533 5533 5531 5535 5534 5529 5527 5525 5522 5520 5521 5520 5517 5513 5509 5506 5501 5497 5492 5485 5478 5470 5462 5454 5446 5438 5428 5417 5408 5399 5389 5378 5366 5353 5340 5325
5524 5522 5522 5523 5524 5526 5526 5525 5526 5529 5528 5526 5526 5526 5521 5521 5518 5517 5515 5513 5510 5508 5506 5501 5494 5488 5482 5475 5467 5458 5449 5440 5430 5420 5410 5401 5392 5382 5371 5358 5346 5331 5316
5522 5519 5519 5520 5523 5524 5524 5524 5522 5517 5517 5517 5520 5519 5519 5518 5515 5513 5511 5509 5507 5506 5503 5497 5492 5485 5478 5471 5464 5455 5445 5435 5424 5415 5405 5396 5386 5375 5364 5352 5339 5324 5310
5518 5517 5518 5520 5523 5523 5522 5520 5520 5520 5515 5511 5512 5513 5511 5513 5512 5510 5508 5505 5503 5500 5499 5495 5489 5482 5476 5469 5460 5451 5441 5431 5420 5410 5400 5390 5381 5371 5360 5348 5336 5321 5305
5514 5513 5515 5517 5518 5520 5518 5517 5517 5516 5511 5507 5507 5505 5506 5507 5507 5505 5504 5506 5504 5500 5496 5491 5486 5480 5473 5465 5457 5448 5439 5429 5418 5408 5397 5388 5378 5368 5357 5345 5332 5318 5305
5511 5513 5514 5513 5513 5515 5515 5515 5513 5511 5508 5505 5505 5504 5504 5505 5504 5503 5503 5502 5501 5497 5494 5490 5484 5478 5470 5463 5455 5446 5437 5427 5417 5408 5398 5388 5377 5367 5356 5344 5333 5321 5310
5507 5508 5510 5512 5512 5511 5512 5512 5512 5511 5506 5504 5503 5502 5506 5507 5505 5503 5502 5500 5499 5497 5493 5489 5483 5476 5469 5462 5454 5446 5437 5428 5418 5408 5398 5388 5378 5369 5358 5347 5336 5324 5312
5503 5505 5507 5509 5508 5508 5508 5510 5510 5508 5504 5501 5499 5500 5502 5504 5504 5503 5500 5499 5497 5495 5492 5488 5482 5476 5469 5462 5455 5447 5438 5430 5420 5410 5400 5390 5381 5371 5360 5350 5339 5328 5316
5499 5502 5503 5503 5504 5503 5504 5506 5506 5505 5503 5501 5501 5500 5499 5502 5503 5502 5499 5498 5496 5494 5491 5487 5482 5475 5469 5462 5456 5449 5440 5432 5423 5413 5403 5393 5383 5373 5364 5354 5343 5333 5322
5496 5499 5501 5500 5500 5500 5502 5503 5503 5502 5501 5501 5501 5501 5501 5502 5502 5501 5499 5497 5495 5493 5490 5486 5482 5476 5470 5463 5457 5450 5443 5434 5425 5416 5407 5397 5387 5377 5368 5359 5349 5339 5330
5491 5494 5496 5498 5498 5500 5500 5501 5501 5500 5500 5501 5501 5501 5502 5502 5501 5500 5498 5496 5494 5493 5490 5486 5482 5476 5471 5465 5459 5452 5445 5436 5427 5419 5410 5400 5391 5382 5373 5364 5355 5346 5338
5487 5490 5493 5494 5496 5498 5500 5500 5500 5500 5500 5500 5501 5502 5503 5503 5501 5500 5499 5497 5495 5493 5490 5486 5482 5477 5472 5466 5460 5453 5446 5438 5429 5422 5414 5405 5396 5387 5378 5370 5361 5353 5344